DLH6PF EDDM-LDDU

Flight info

Callsign DLH6PF
Flight time N/A
Altitude 33000
Route VAVOR3Q VAVOR M867 RADIZ DCT GIMIX/N0428F370 DCT ALIVO DCT SIPAL
Aircraft A320/M-SDE2E3FGIJ1LORWXYZ/HB1

Departure

Time 2026-05-04 14:59
Airport Munich Airport (EDDM)

Arrival

Time N/A
Airport Dubrovnik Ruđer Bošković Airport (LDDU)
Time Latitude Longitude Altitude Speed Heading
2026-05-04 14:34 48.35208 11.79779 1471 ft 0 kts 83°
2026-05-04 14:45 48.35207 11.79767 1485 ft 4 kts 83°
2026-05-04 14:46 48.35204 11.79727 1480 ft 4 kts 83°
2026-05-04 14:46 48.35201 11.79694 1476 ft 4 kts 85°
2026-05-04 14:46 48.35204 11.79657 1477 ft 4 kts 121°
2026-05-04 14:46 48.35222 11.79631 1471 ft 4 kts 166°
2026-05-04 14:47 48.35245 11.79626 1476 ft 2 kts 173°
2026-05-04 14:47 48.35246 11.79626 1476 ft 0 kts 173°
2026-05-04 14:50 48.35218 11.79631 1471 ft 10 kts 173°
2026-05-04 14:51 48.35117 11.79649 1485 ft 17 kts 173°
2026-05-04 14:51 48.35003 11.79669 1485 ft 15 kts 173°
2026-05-04 14:51 48.34907 11.79686 1485 ft 9 kts 173°
2026-05-04 14:51 48.34871 11.79692 1480 ft 0 kts 173°
2026-05-04 14:53 48.34839 11.79695 1485 ft 13 kts 183°
2026-05-04 14:54 48.34785 11.79548 1481 ft 20 kts 267°
2026-05-04 14:54 48.34774 11.79328 1482 ft 22 kts 263°
2026-05-04 14:54 48.34755 11.79094 1485 ft 23 kts 263°
2026-05-04 14:54 48.34741 11.78927 1485 ft 24 kts 263°
2026-05-04 14:55 48.34715 11.78579 1485 ft 26 kts 263°
2026-05-04 14:55 48.34701 11.78395 1485 ft 27 kts 264°
2026-05-04 14:55 48.34679 11.78106 1483 ft 28 kts 263°
2026-05-04 14:55 48.34656 11.77805 1485 ft 30 kts 263°
2026-05-04 14:56 48.34631 11.77492 1485 ft 31 kts 263°
2026-05-04 14:56 48.34605 11.77167 1482 ft 32 kts 263°
2026-05-04 14:56 48.34580 11.76834 1475 ft 28 kts 263°
2026-05-04 14:56 48.34557 11.76535 1485 ft 29 kts 264°
2026-05-04 14:57 48.34534 11.76228 1480 ft 29 kts 263°
2026-05-04 14:57 48.34510 11.75926 1475 ft 29 kts 264°
2026-05-04 14:57 48.34442 11.75775 1480 ft 13 kts 166°
2026-05-04 14:57 48.34365 11.75860 1480 ft 16 kts 124°
2026-05-04 14:58 48.34309 11.76041 1483 ft 22 kts 114°
2026-05-04 14:58 48.34239 11.76280 1482 ft 27 kts 113°
2026-05-04 14:58 48.34189 11.76575 1485 ft 35 kts 91°
2026-05-04 14:58 48.34238 11.77292 1486 ft 104 kts 83°
2026-05-04 14:59 48.34344 11.78659 1516 ft 155 kts 81°
2026-05-04 14:59 48.34476 11.80282 2177 ft 157 kts 82°
2026-05-04 14:59 48.34727 11.83706 3208 ft 183 kts 84°
2026-05-04 15:00 48.34873 11.85729 3534 ft 207 kts 84°
2026-05-04 15:00 48.35043 11.88013 3905 ft 233 kts 84°
2026-05-04 15:00 48.35232 11.90510 4579 ft 245 kts 84°
2026-05-04 15:01 48.35083 11.95628 6348 ft 253 kts 119°
2026-05-04 15:01 48.33904 11.97564 7232 ft 253 kts 143°
2026-05-04 15:01 48.32441 11.99123 7910 ft 267 kts 156°
2026-05-04 15:01 48.30626 12.00022 8412 ft 286 kts 166°
2026-05-04 15:02 48.28633 12.00856 8811 ft 307 kts 166°
2026-05-04 15:02 48.26539 12.01722 9592 ft 315 kts 166°
2026-05-04 15:02 48.24415 12.02602 10450 ft 318 kts 166°
2026-05-04 15:02 48.22271 12.03494 11296 ft 321 kts 166°
2026-05-04 15:03 48.20106 12.04396 12132 ft 324 kts 166°
2026-05-04 15:03 48.17920 12.05306 12933 ft 328 kts 167°
2026-05-04 15:03 48.15711 12.06224 13728 ft 331 kts 167°
2026-05-04 15:03 48.13476 12.07150 14416 ft 335 kts 167°
2026-05-04 15:04 48.11575 12.07937 14986 ft 338 kts 167°
2026-05-04 15:04 48.09377 12.08864 15688 ft 297 kts 166°
2026-05-04 15:04 48.07465 12.09698 16452 ft 291 kts 166°
2026-05-04 15:04 48.05465 12.10593 17309 ft 309 kts 166°
2026-05-04 15:05 48.04765 12.10918 17621 ft 313 kts 165°